[[{"header":{"parameterUnit":"m.s-1","parameterCategory":1,"la1":30.2991,"la2":30.254,"lo1":-89.0895,"lo2":-89.0444,"dy":0.0017,"dx":0.0017,"nx":28,"ny":28,"refTime":"2023-10-24T21:00:00:Z","depth":0,"parameterNumber":2,"parameterNumberName":"U-component_of_WINDS"},"data":[0,0,0,0,0,0,0,0,0,0,0,0,0,0,0,0,0,0,0,0,0,0,0,0,0,0,0,0,0,0,0,0,0,0,0,0,0,0,0,0,0,0,0,0,0,0,0,0,0,0,0,0,0,0,0,0,0,0,-5.9194,-5.9195,0,-5.9266,-5.9267,-5.9268,-5.9237,-5.9235,-5.9233,-5.9231,-5.9302,-5.9306,-5.9309,0,0,0,0,0,0,0,0,0,0,0,0,0,-5.903,-5.9033,-5.9194,-5.9195,-5.9196,-5.9266,-5.9267,-5.9268,-5.9237,-5.9235,-5.9233,-5.9231,-5.9301,-5.9305,-5.931,0,0,0,0,0,0,0,0,0,0,0,0,0,-5.9102,-5.9034,-5.9194,-5.9189,-5.9189,-5.9266,-5.9267,-5.9269,-5.9237,-5.9235,-5.9232,-5.923,-5.93,-5.9305,-5.931,-5.9396,0,0,-5.9326,-5.9329,0,0,0,0,0,0,0,0,-5.9098,-5.9108,-5.9189,-5.9189,-5.919,-5.924,-5.9235,-5.9311,-5.9238,-5.9219,-5.9231,-5.9228,-5.9284,-5.929,-5.9309,-5.9399,-5.9402,-5.9327,-5.933,-5.9332,-5.9334,0,0,0,0,0,0,0,-5.9093,-5.9104,-5.9223,-5.919,-5.9191,-5.9183,-5.9191,-5.925,-5.9265,-5.922,-5.9218,-5.9227,-5.9283,-5.9304,-5.9311,-5.9403,-5.9327,-5.9331,-5.9335,-5.9337,-5.957,-5.9573,0,0,0,0,0,0,-5.9088,-5.91,-5.922,-5.9225,-5.9136,-5.9188,-5.9196,-5.9226,-5.9264,-5.9268,-5.923,-5.9226,-5.9296,-5.9305,-5.9313,-5.9416,-5.9332,-5.9337,-5.934,-5.9567,-5.9571,-5.9574,0,0,0,0,0,0,-5.9084,-5.9099,-5.9217,-5.9162,-5.9177,-5.9194,-5.9228,-5.9229,-5.925,-5.9271,-5.9274,-5.9248,-5.9295,-5.9306,-5.9376,-5.9418,-5.934,-5.9344,-5.9563,-5.9568,-5.9572,-5.9623,0,0,0,0,0,0,-5.908,-5.9098,-5.913,-5.9163,-5.918,-5.9279,-5.9231,-5.9233,-5.926,-5.9255,-5.9289,-5.9292,-5.9293,-5.9369,-5.9382,-5.9424,-5.9349,-5.956,-5.9565,-5.9571,-5.9618,-5.9629,-5.9638,0,0,0,0,0,-5.9074,-5.914,-5.9131,-5.9146,-5.922,-5.9281,-5.9291,-5.9292,-5.9263,-5.9295,-5.931,-5.9291,-5.9413,-5.9376,-5.939,-5.9435,-5.9557,-5.9564,-5.957,-5.9613,-5.9627,-5.9638,0,0,0,0,0,0,-5.9108,-5.9144,-5.9135,-5.9213,-5.9245,-5.9276,-5.9316,-5.9306,-5.9345,-5.9339,-5.9338,-5.9346,-5.9419,-5.9435,-5.9393,-5.9522,-5.948,-5.949,-5.9508,-5.9521,-5.9531,-5.9524,-5.9353,0,0,0,0,0,-5.9125,-5.9172,-5.9201,-5.9268,-5.9284,-5.9298,-5.9325,-5.9324,-5.9356,-5.9368,-5.9388,-5.9419,-5.9465,-5.9494,-5.9537,-5.9622,-5.9629,-5.966,-5.9671,-5.9679,-5.9686,-5.9734,-5.9748,-5.9596,-5.9596,-5.9596,0,0,-5.9159,-5.9185,-5.9214,-5.9275,-5.9299,-5.9349,-5.9309,-5.9362,-5.9398,-5.9376,-5.9444,-5.946,-5.9496,-5.9574,-5.961,-5.9589,-5.9731,-5.9688,-5.9694,-5.9697,-5.9743,-5.9757,-5.977,-5.9601,-5.96,-5.9599,0,0,-5.9247,-5.9272,-5.933,-5.9357,-5.9396,-5.9405,-5.942,-5.9455,-5.9465,-5.9534,-5.9519,-5.9563,-5.9641,-5.9668,-5.9691,-5.9797,-5.9781,-5.9811,-5.9864,-5.991,-5.9922,-5.9933,-5.997,-5.9983,-5.982,-5.982,-5.982,0,-5.9284,-5.9358,-5.9362,-5.9417,-5.9445,-5.9431,-5.9491,-5.9516,-5.9566,-5.9586,-5.9564,-5.9664,-5.9687,-5.9772,-5.9799,-5.9819,-5.9835,-5.9805,-5.992,-5.9931,-5.9941,-5.9976,-5.999,-5.9823,-5.9823,-5.9822,-5.9822,0,-5.9402,-5.9454,-5.9497,-5.9548,-5.9582,-5.9639,-5.9653,-5.9686,-5.9684,-5.9697,-5.9769,-5.9798,-5.9847,-5.9868,-5.9865,-5.9954,-5.9941,-5.992,-5.9877,-5.9959,-5.9992,-6.0006,-5.9828,-5.9826,-5.9826,-5.9825,0,0,-5.9506,-5.9564,-5.9579,-5.9604,-5.9649,-5.9689,-5.9748,-5.9798,-5.9827,-5.9864,-5.9913,-5.9983,-5.9965,-5.9992,-5.9994,-6.0035,-6.0117,-6.0009,-6.001,-6.0027,-6.0218,-6.0232,-6.0247,-6.011,-6.0112,-6.0114,-6.0215,0,-5.9596,-5.9699,-5.9707,-5.98,-5.9848,-5.9839,-5.9891,-5.9924,-5.9939,-5.9983,-6.0,-6.005,-6.0023,-6.0039,-6.008,-6.0098,-6.0155,-6.0092,-6.0154,-6.0156,-6.0142,-6.0265,-6.0278,-6.0371,-6.0228,-6.023,-6.0232,0,-5.9713,-5.9756,-5.9854,-5.9896,-5.9917,-5.9962,-6.0011,-6.0054,-6.0093,-6.0102,-6.0136,-6.0132,-6.0194,-6.0154,-6.0239,-6.0196,-6.0223,-6.0237,-6.024,-6.0243,-6.0196,-6.0269,-6.0401,-6.0414,-6.0252,-6.0251,-6.0249,0,-5.9778,-5.9861,-5.9931,-5.9953,-6.0003,-6.0036,-6.0058,-6.0095,-6.0127,-6.017,-6.0191,-6.0241,-6.0267,-6.0307,-6.0318,-6.0287,-6.0403,-6.0363,-6.0411,-6.0411,-6.0432,-6.043,-6.0568,-6.0455,-6.0455,-6.0454,-6.0454,0,-5.9875,-5.9935,-5.9962,-6.0004,-6.0072,-6.0083,-6.015,-6.0171,-6.0205,-6.0252,-6.0249,-6.0293,-6.0306,-6.0354,-6.0364,-6.0433,-6.0446,-6.0454,-6.0455,-6.0453,-6.0452,-6.0468,-6.0461,-6.0458,-6.0457,-6.0457,-6.0456,0,-5.9957,-5.9977,-6.0053,-6.0097,-6.0109,-6.0158,-6.0195,-6.0237,-6.0254,-6.0314,-6.0329,-6.0356,-6.0412,-6.0429,-6.0495,-6.0502,-6.0584,-6.058,-6.057,-6.0569,-6.0616,-6.0611,-6.0767,-6.0788,-6.0663,-6.0664,-6.0665,0,-6.0016,-6.0063,-6.0113,-6.0145,-6.017,-6.0221,-6.0255,-6.0269,-6.0304,-6.0355,-6.0391,-6.0448,-6.0492,-6.0583,-6.0608,-6.0661,-6.0657,-6.0709,-6.0664,-6.0661,-6.0656,-6.0652,-6.0657,-6.0715,-6.0716,-6.0718,-6.0718,0,-6.0119,-6.0128,-6.0176,-6.023,-6.027,-6.0312,-6.0353,-6.038,-6.04,-6.044,-6.0498,-6.0534,-6.0605,-6.066,-6.0715,-6.0738,-6.0732,-6.0733,-6.0747,-6.0743,-6.0735,-6.0739,-6.059,-6.0728,-6.0727,-6.0727,-6.0726,-6.0726,-6.019,-6.0232,-6.0275,-6.033,-6.0363,-6.0403,-6.0445,-6.047,-6.0519,-6.0578,-6.0585,-6.0648,-6.0691,-6.0763,-6.079,-6.0841,-6.0825,-6.0845,-6.085,-6.0854,-6.0857,-6.073,-6.0851,-6.0851,-6.085,-6.085,-6.085,0,-6.0291,-6.032,-6.0371,-6.043,-6.0474,-6.0468,-6.0515,-6.0551,-6.0607,-6.0648,-6.0695,-6.0763,-6.0819,-6.0852,-6.0908,-6.0942,-6.0941,-6.0956,-6.0952,-6.0958,-6.0868,-6.085,-6.0956,-6.0956,-6.0956,-6.0956,-6.0956,-6.0956,-6.0349,-6.042,-6.0436,-6.0524,-6.0553,-6.0616,-6.0643,-6.068,-6.0713,-6.079,-6.0838,-6.086,-6.0898,-6.0958,-6.1009,-6.1018,-6.1038,-6.1054,-6.1061,-6.0975,-6.0964,-6.0953,-6.0936,-6.1059,-6.1059,-6.1146,-6.1147,-6.1148]},{"header":{"parameterUnit":"m.s-1","parameterCategory":1,"la1":30.2991,"la2":30.254,"lo1":-89.0895,"lo2":-89.0444,"dy":0.0017,"dx":0.0017,"nx":28,"ny":28,"refTime":"2023-10-24T21:00:00:Z","depth":0,"parameterNumber":3,"parameterNumberName":"V-component_of_WINDS"},"data":[0,0,0,0,0,0,0,0,0,0,0,0,0,0,0,0,0,0,0,0,0,0,0,0,0,0,0,0,0,0,0,0,0,0,0,0,0,0,0,0,0,0,0,0,0,0,0,0,0,0,0,0,0,0,0,0,0,0,2.6197,2.6197,0,2.626,2.626,2.6261,2.634,2.6341,2.6343,2.6344,2.6401,2.6401,2.6402,0,0,0,0,0,0,0,0,0,0,0,0,0,2.614,2.6141,2.6197,2.6197,2.6198,2.626,2.626,2.6261,2.634,2.6341,2.6343,2.6344,2.6401,2.6401,2.6402,0,0,0,0,0,0,0,0,0,0,0,0,0,2.618,2.6141,2.6196,2.6245,2.625,2.6259,2.626,2.6262,2.634,2.6341,2.6343,2.6345,2.6401,2.6401,2.6402,2.6367,0,0,2.6403,2.6404,0,0,0,0,0,0,0,0,2.6177,2.6182,2.6237,2.6242,2.6247,2.6294,2.6262,2.6296,2.6339,2.6305,2.6344,2.6346,2.6363,2.6367,2.6375,2.6369,2.6372,2.6403,2.6404,2.6404,2.6404,0,0,0,0,0,0,0,2.6175,2.618,2.6221,2.6238,2.6244,2.6262,2.627,2.6269,2.6322,2.6308,2.6314,2.6321,2.6367,2.6374,2.6376,2.6373,2.6403,2.6404,2.6404,2.6404,2.6345,2.6343,0,0,0,0,0,0,2.6165,2.6177,2.6219,2.6223,2.6217,2.6262,2.627,2.6277,2.6323,2.6332,2.6319,2.6325,2.6372,2.6376,2.6379,2.6343,2.6404,2.6404,2.6405,2.6347,2.6344,2.6342,0,0,0,0,0,0,2.6164,2.6168,2.6217,2.6202,2.6209,2.6261,2.6267,2.6277,2.6285,2.6331,2.6341,2.6317,2.6374,2.6378,2.637,2.6346,2.6405,2.6405,2.6349,2.6346,2.6343,2.6269,0,0,0,0,0,0,2.6162,2.6167,2.6155,2.6201,2.621,2.6208,2.6266,2.6277,2.6286,2.6294,2.6332,2.634,2.6376,2.6369,2.6371,2.6348,2.6405,2.6351,2.6348,2.6344,2.6274,2.6264,2.6255,0,0,0,0,0,2.616,2.6129,2.6154,2.6159,2.6196,2.6207,2.6212,2.6255,2.6284,2.6272,2.6302,2.6339,2.6348,2.6368,2.637,2.6347,2.6353,2.6349,2.6345,2.6278,2.6266,2.6256,0,0,0,0,0,0,2.6076,2.6136,2.6164,2.6148,2.6172,2.622,2.6206,2.6241,2.6255,2.6261,2.6313,2.6321,2.6307,2.6326,2.6346,2.6317,2.6356,2.6352,2.6305,2.6294,2.6285,2.628,2.6406,0,0,0,0,0,2.6056,2.6061,2.6113,2.6094,2.6105,2.6153,2.6159,2.6192,2.6217,2.6227,2.6257,2.6279,2.6288,2.6292,2.6302,2.6277,2.6287,2.6262,2.6253,2.6246,2.6241,2.6232,2.6222,2.6328,2.6329,2.6329,0,0,2.6014,2.6048,2.6047,2.6078,2.61,2.6104,2.6161,2.6161,2.6165,2.6226,2.6222,2.6245,2.6273,2.6258,2.6252,2.6273,2.6215,2.624,2.6234,2.6234,2.6227,2.6217,2.6208,2.6326,2.6326,2.6327,0,0,2.594,2.5965,2.5954,2.5976,2.6011,2.6044,2.6041,2.6085,2.6103,2.6101,2.6148,2.6152,2.6165,2.6184,2.6195,2.6133,2.6167,2.6134,2.6086,2.6076,2.6068,2.6061,2.604,2.6032,2.613,2.613,2.613,0,2.5882,2.5892,2.5942,2.5942,2.5955,2.6015,2.6003,2.6022,2.6056,2.6063,2.6087,2.6107,2.613,2.6121,2.6107,2.6113,2.6112,2.6129,2.6066,2.6059,2.6053,2.6034,2.6025,2.6126,2.6126,2.6126,2.6127,0,2.582,2.5826,2.5812,2.5849,2.586,2.5853,2.5903,2.5908,2.594,2.597,2.5968,2.5998,2.6017,2.6017,2.6046,2.6013,2.6025,2.6056,2.6097,2.6038,2.6021,2.6014,2.612,2.6121,2.6122,2.6123,0,0,2.5692,2.5761,2.5755,2.5773,2.5818,2.5822,2.5819,2.5841,2.5845,2.5867,2.5866,2.5878,2.5908,2.5921,2.5954,2.5945,2.5896,2.5978,2.598,2.5963,2.5863,2.584,2.5831,2.592,2.5919,2.5918,2.5861,0,2.5627,2.5628,2.5675,2.5662,2.5669,2.5728,2.5726,2.5752,2.5781,2.579,2.5821,2.583,2.5868,2.5877,2.5872,2.5903,2.5877,2.5908,2.5919,2.5918,2.591,2.5821,2.5796,2.5741,2.5855,2.5854,2.5853,0,2.555,2.5573,2.5561,2.561,2.5614,2.5611,2.5637,2.5645,2.5677,2.5698,2.5715,2.5754,2.5754,2.5793,2.5794,2.5814,2.5821,2.5838,2.5837,2.5839,2.5882,2.5822,2.5725,2.5716,2.5842,2.5843,2.5844,0,2.546,2.5487,2.5485,2.5499,2.5554,2.5552,2.5574,2.5608,2.5619,2.5641,2.5648,2.5668,2.5679,2.5693,2.5736,2.5761,2.5732,2.5775,2.575,2.5749,2.5741,2.5741,2.5644,2.5745,2.5745,2.5745,2.5745,0,2.5382,2.5373,2.5446,2.5444,2.5436,2.5491,2.5481,2.5509,2.554,2.5544,2.5595,2.5598,2.5655,2.5664,2.5697,2.5694,2.5698,2.5715,2.5724,2.5711,2.5709,2.5716,2.5721,2.5743,2.5743,2.5744,2.5744,0,2.528,2.5328,2.533,2.5384,2.5398,2.5389,2.5435,2.5436,2.547,2.5475,2.5479,2.5531,2.5545,2.559,2.5613,2.5636,2.5622,2.5639,2.5612,2.5618,2.5592,2.5594,2.5496,2.5487,2.5593,2.5592,2.5591,0,2.5227,2.5223,2.5278,2.5286,2.5308,2.5319,2.5333,2.5386,2.5397,2.5435,2.5431,2.545,2.5468,2.5487,2.5525,2.5544,2.5563,2.5527,2.5565,2.5553,2.5563,2.5564,2.5564,2.5518,2.5517,2.5516,2.5515,0,2.5129,2.5155,2.5172,2.5199,2.5214,2.5237,2.5263,2.5266,2.5326,2.5336,2.5353,2.5367,2.5394,2.5411,2.5438,2.546,2.5497,2.5503,2.5499,2.5485,2.5471,2.548,2.5591,2.5505,2.5506,2.5507,2.5507,2.5507,2.5051,2.5051,2.5091,2.511,2.5136,2.516,2.5164,2.52,2.5216,2.5244,2.5274,2.5287,2.5321,2.5361,2.5381,2.5391,2.5411,2.5404,2.5403,2.54,2.5395,2.5469,2.5396,2.5396,2.5397,2.5397,2.5397,0,2.4958,2.4987,2.5004,2.5041,2.5056,2.5093,2.5125,2.5134,2.5146,2.5176,2.5194,2.5214,2.5232,2.5274,2.5297,2.5297,2.5315,2.5301,2.5302,2.5307,2.5375,2.5377,2.5286,2.5286,2.5286,2.5287,2.5287,2.5287,2.4911,2.4913,2.4943,2.4959,2.4989,2.5005,2.502,2.5042,2.5067,2.5088,2.5105,2.5133,2.5168,2.5194,2.5212,2.5224,2.523,2.5211,2.5228,2.5291,2.5301,2.5311,2.5314,2.5211,2.5211,2.5159,2.5159,2.5158]}]]